To NAV CANADA Home Page Login to a new session Search on AWWS site Disclaimer Vers la page française équivalente Tips FAQ What's new on the site To the Forecasts and Observations / NOTAM section To "File a Flight Plan" website Publications and other links Update of the User's profile FIC Telephone Numbers My Weather Data Folder Route Weather Data Regional Weather Data Local Weather Data To the Forecasts and Observations / NOTAM section
Request Generated 04/25/2019 at 08:29:33 UTC . Weather information available at that time is displayed.

METAR/TAF

UMIUJAQ/QC    

LWIS CYMU 250800Z AUTO 14020KT 04/M06 A2969=
LWIS CYMU 250700Z AUTO 14018G24KT 04/M06 A2971=
LWIS CYMU 250600Z AUTO 13018G23KT 05/M06 A2973=

CYMU - No TAF is issued for this station

Your time UTC time
Weather data provided by Environment Canada and NAV CANADA